ATLAS CENTAUR 2 DEB, 700

Orbit data source: Space-Track

ATLAS CENTAUR 2 DEB, 700 is space debris in LEO originally from a launch on Wed, 27 Nov 1963 UTC launched from the Air Force Eastern Test Range (AFETR). Debris objects in space refer to the collection of defunct objects orbiting the Earth. Examples of debris include non-operational satellites, rocket bodies, and fragments generated from explosions, collisions, or faulty payload assembly.

Loading next visibility...
Identifier
700, 1963-047F
Orbit
LEO
Last TLE update
17 hours ago
Origin
Manufacturer
GD/Convair
Mission
Spacecraft
Bus & Motor
CENTAUR PART, Unknown motor
Mass
Unknown
Launch date (UTC)
1963-11-27 (61 years ago)
Launch vehicle
Unknown
Launch site
Air Force Eastern Test Range (AFETR)
Object type
Payload
Rocket body
Debris
Shape & HBR
Unknown
Radar Cross Section
0.510 m², Medium (>0.1 m² and < 1m²)

Expand to show TLE details & history

TLE from 17 hours ago
0 ATLAS CENTAUR 2 DEB
1 00700U 63047F   25128.58778806  .00000758  00000-0  26398-3 0  9995
2 00700  30.4794 239.0402 0717945 165.5326 196.7005 13.39918362995889
Epoch: 2025-05-08T14:06Z
Definitive object data (Epoch: 2025-05-08T14:06:24.888Z)
Latitude
-0.00004°
Longitude
160.7803°
Altitude
1,625.817 km
Speed
6.812 km/s
True Right ascension
15h 56m 09s
True Declination
0° 00' 00"
Sunlit
Object was in full shadow at TLE epoch
Visualization TLE readout
Latitude
-1.78848°
Longitude
-19.70463°
Altitude
581.805 km
Speed
7.833 km/s
Apparent Right ascension
03h 37m 49s
Apparent Declination
-19° 56' 46"
Sunlit
Object is in daylight
Visualization observer readout
Local Sidereal Time
15:14:31
Azimuth
344.256° N
Elevation
-69.415°
Doppler factor
1
Orbital elements
Apogee altitude
1,651.068 km
Perigee altitude
575.39 km
Semi-major axis
7,491.366 km
Eccentricity
0.0717945
Inclination
30.4794°
RAAN
239.0402°
Arg. of periapsis
165.5326°
True anomaly
194.52448°
Mean anomaly
196.7005°
Eccentric anomaly
195.59466°
Mean motion
3.34735 °/min
BSTAR
0.00026398
Orbital period
107.55 mins
Loading maneuver chart data...
Loading SW <> Apogee altitude chart data...

ATLAS CENTAUR 2 DEB Visibility forecast

Observer location: undefined°, undefined°

Span
Click to sort rows by Start time (UTC) header in descending order
Start Az.
Max El. time (UTC)
Max El. Az.
Max El.
End time (UTC)
End Az.
12 mins2025-05-09 09:56:35.128Z201.972° SSW2025-05-09 10:02:35.128Z161.4° S20.547°2025-05-09 10:08:35.128Z112.314° ESE
12 mins2025-05-09 11:50:35.128Z229.478° WSW2025-05-09 11:56:35.128Z179.739° S29.719°2025-05-09 12:02:35.128Z111.295° ESE
10 mins2025-05-09 13:45:35.128Z245.729° WSW2025-05-09 13:50:35.128Z195.568° SSW29.964°2025-05-09 13:55:35.128Z126.22° SE
6 mins2025-05-09 15:41:35.128Z236.596° WSW2025-05-09 15:44:35.128Z199.59° SSW18.486°2025-05-09 15:47:35.128Z161.046° S
|